This demonstration page uses our WeatherBlox Daily Observations layout. Learn more.

Left ArrowRight Arrow

Hourly Observations for January 27, 2018

Temp ( °F °C ) Dew Point ( °F °C ) Humidity (%) Winds ( mph kmh ) Pressure ( in mb ) Visibility ( mi km ) Precip ( " mm )
12:15 am 00:15 Clear with Nearby Thunderstorms 34 1 30 -1 87 87 SSE 3 6 30.53 1034 10 16.0934 0 0
12:35 am 00:35 Clear 32 0 30 -1 93 93 Calm 30.53 1034 10 16.0934 0 0
12:55 am 00:55 Clear 32 0 30 -1 93 93 SSE 5 7 30.53 1034 10 16.0934 0 0
1:15 am 01:15 Clear 32 0 30 -1 93 93 Calm 30.53 1034 10 16.0934 0 0
1:35 am 01:35 Clear 30 -1 28 -2 93 93 NNW 5 7 30.53 1034 10 16.0934 0 0
1:55 am 01:55 Clear 30 -1 28 -2 93 93 Calm 30.53 1034 10 16.0934 0 0
2:15 am 02:15 Clear 30 -1 28 -2 93 93 Calm 30.53 1034 10 16.0934 0 0
2:35 am 02:35 Clear 30 -1 28 -2 93 93 Calm 30.53 1034 10 16.0934 0 0
2:55 am 02:55 Clear 30 -1 28 -2 93 93 Calm 30.53 1034 10 16.0934 0 0
3:15 am 03:15 Clear 28 -2 27 -3 93 93 NNW 6 9 30.53 1034 10 16.0934 0 0
3:35 am 03:35 Clear 28 -2 28 -2 100 100 Calm 30.53 1034 10 16.0934 0 0
3:55 am 03:55 Clear 28 -2 27 -3 93 93 Calm 30.53 1034 10 16.0934 0 0
4:15 am 04:15 Clear 28 -2 27 -3 93 93 Calm 30.53 1034 10 16.0934 0 0
4:35 am 04:35 Clear 30 -1 30 -1 100 100 S 8 13 30.5 1033 10 16.0934 0 0
4:55 am 04:55 Clear 27 -3 27 -3 100 100 S 8 13 30.5 1033 10 16.0934 0 0
5:15 am 05:15 Clear 27 -3 27 -3 100 100 SSW 7 11 30.53 1034 10 16.0934 0 0
5:35 am 05:35 Clear 28 -2 28 -2 100 100 Calm 30.5 1033 10 16.0934 0 0
5:55 am 05:55 Clear 30 -1 28 -2 93 93 Calm 30.5 1033 10 16.0934 0 0
6:15 am 06:15 Clear 28 -2 27 -3 93 93 S 3 6 30.5 1033 10 16.0934 0 0
6:35 am 06:35 Clear 28 -2 27 -3 93 93 Calm 30.5 1033 10 16.0934 0 0
6:55 am 06:55 Clear 27 -3 27 -3 100 100 SSW 3 6 30.5 1033 10 16.0934 0 0
7:15 am 07:15 Clear 28 -2 27 -3 93 93 SSW 5 7 30.5 1033 10 16.0934 0 0
7:35 am 07:35 Sunny 27 -3 27 -3 100 100 Calm 30.53 1034 10 16.0934 0 0
7:55 am 07:55 Sunny 30 -1 28 -2 93 93 SW 3 6 30.53 1034 10 16.0934 0 0
8:15 am 08:15 Sunny 32 0 28 -2 87 87 SW 5 7 30.53 1034 10 16.0934 0 0
8:35 am 08:35 Sunny 32 0 30 -1 93 93 SSW 5 7 30.53 1034 10 16.0934 0 0
8:55 am 08:55 Sunny 37 3 30 -1 75 75 SSW 6 9 30.53 1034 10 16.0934 0 0
9:15 am 09:15 Sunny 41 5 30 -1 66 66 SSW 5 7 30.53 1034 10 16.0934 0 0
9:35 am 09:35 Sunny 43 6 30 -1 61 61 SSW 6 9 30.53 1034 10 16.0934 0 0
9:55 am 09:55 Sunny 46 8 30 -1 53 53 S 7 11 30.5 1033 10 16.0934 0 0
10:15 am 10:15 Sunny 50 10 30 -1 47 47 SSW 5 7 30.5 1033 10 16.0934 0 0
10:35 am 10:35 Sunny 52 11 32 0 47 47 SSW 9 15 30.5 1033 10 16.0934 0 0
10:55 am 10:55 Sunny 54 12 32 0 44 44 SW 10 17 30.48 1032 10 16.0934 0 0
11:15 am 11:15 Sunny 55 13 34 1 44 44 SW 10 17 30.48 1032 10 16.0934 0 0
11:35 am 11:35 Sunny 57 14 36 2 44 44 SSW 18 30 30.45 1031 10 16.0934 0 0
11:55 am 11:55 Sunny 59 15 37 3 45 45 SSW 15 24 30.42 1030 10 16.0934 0 0
12:15 pm 12:15 Sunny 61 16 39 4 45 45 SSW 17 28 30.39 1029 10 16.0934 0 0
12:35 pm 12:35 Sunny 61 16 41 5 48 48 SW 16 26 30.39 1029 10 16.0934 0 0
12:55 pm 12:55 Sunny 61 16 41 5 48 48 SSW 16 26 30.39 1029 10 16.0934 0 0
1:15 pm 13:15 Sunny 61 16 41 5 48 48 SSW 17 28 30.36 1028 10 16.0934 0 0
1:35 pm 13:35 Sunny 61 16 43 6 52 52 SSW 12 19 30.36 1028 10 16.0934 0 0
1:55 pm 13:55 Sunny 61 16 43 6 52 52 SSW 16 26 30.33 1027 10 16.0934 0 0
2:15 pm 14:15 Sunny 61 16 45 7 55 55 SSW 12 19 30.33 1027 10 16.0934 0 0
2:35 pm 14:35 Sunny 63 17 45 7 52 52 SSW 21 33 30.3 1026 10 16.0934 0 0
2:55 pm 14:55 Sunny 61 16 45 7 55 55 SSW 13 20 30.3 1026 10 16.0934 0 0
3:15 pm 15:15 Sunny 61 16 45 7 55 55 SSW 16 26 30.3 1026 10 16.0934 0 0
3:35 pm 15:35 Sunny 61 16 45 7 55 55 SSW 20 31 30.3 1026 10 16.0934 0 0
3:55 pm 15:55 Sunny 61 16 45 7 55 55 SSW 21 33 30.3 1026 10 16.0934 0 0
4:15 pm 16:15 Sunny 61 16 45 7 55 55 SSW 22 35 30.3 1026 10 16.0934 0 0
4:35 pm 16:35 Sunny 59 15 45 7 59 59 SSW 23 37 30.3 1026 10 16.0934 0 0
4:55 pm 16:55 Sunny 59 15 45 7 59 59 SSW 15 24 30.3 1026 10 16.0934 0 0
5:15 pm 17:15 Sunny 59 15 45 7 59 59 SSW 17 28 30.3 1026 10 16.0934 0 0
5:35 pm 17:35 Clear 59 15 45 7 59 59 SSW 15 24 30.3 1026 10 16.0934 0 0
5:55 pm 17:55 Clear 59 15 45 7 59 59 SSW 16 26 30.3 1026 10 16.0934 0 0
6:15 pm 18:15 Clear 59 15 45 7 59 59 SSW 15 24 30.3 1026 10 16.0934 0 0
6:35 pm 18:35 Clear 59 15 45 7 59 59 SSW 15 24 30.3 1026 10 16.0934 0 0
6:55 pm 18:55 Clear 59 15 45 7 59 59 SSW 14 22 30.3 1026 10 16.0934 0 0
7:15 pm 19:15 Clear 57 14 46 8 67 67 SSW 15 24 30.3 1026 10 16.0934 0 0
7:35 pm 19:35 Clear 59 15 46 8 63 63 SW 17 28 30.3 1026 10 16.0934 0 0
7:55 pm 19:55 Clear 59 15 46 8 63 63 SW 13 20 30.3 1026 10 16.0934 0 0
8:15 pm 20:15 Clear 59 15 46 8 63 63 SSW 12 19 30.3 1026 10 16.0934 0 0
8:35 pm 20:35 Clear 57 14 46 8 67 67 SW 13 20 30.3 1026 10 16.0934 0 0
8:55 pm 20:55 Partly Cloudy 57 14 46 8 67 67 SSW 13 20 30.3 1026 10 16.0934 0 0
9:15 pm 21:15 Partly Cloudy 57 14 46 8 67 67 SSW 12 19 30.3 1026 10 16.0934 0 0
9:35 pm 21:35 Clear 59 15 46 8 63 63 SSW 16 26 30.27 1025 10 16.0934 0 0
9:55 pm 21:55 Clear 59 15 45 7 59 59 SSW 14 22 30.27 1025 10 16.0934 0 0
10:15 pm 22:15 Mostly Cloudy 57 14 46 8 67 67 SSW 10 17 30.27 1025 10 16.0934 0 0
10:35 pm 22:35 Partly Cloudy 57 14 46 8 67 67 SSW 14 22 30.27 1025 10 16.0934 0 0
10:55 pm 22:55 Clear 57 14 46 8 67 67 SSW 14 22 30.27 1025 10 16.0934 0 0
11:15 pm 23:15 Clear 57 14 46 8 67 67 SSW 14 22 30.27 1025 10 16.0934 0 0
11:35 pm 23:35 Mostly Cloudy 57 14 46 8 67 67 SSW 10 17 30.27 1025 10 16.0934 0 0
11:55 pm 23:55 Cloudy 57 14 46 8 67 67 SW 12 19 30.27 1025 10 16.0934 0 0

Powered by AerisWeather